User: anonymous   Login
Location: Vancouver
(49.2500°N, 123.1330°W)
Time: 08:20:15
(UTC-07:00)
Language:

Cosmos 1340 Rocket - Orbit

View from above orbital plane
View from above orbital plane
View from above satellite
View from above satellite

Ground track
Ground track

The orbit data is extracted from the following two-line orbital elements,

1 13068U 82013B   14296.78716197  .00004235  00000-0  29856-3 0  5386
2 13068 081.2044 245.5984 0021036 267.0020 092.8795 15.04626537777870
Epoch (UTC): 23 October 2014 18:53:30
Eccentricity: 0.0021036
inclination: 81.2044°
perigee height: 538 km
apogee height: 567 km
right ascension of ascending node: 245.5984°
argument of perigee: 267.0020°
revolutions per day: 15.04626537
mean anomaly at epoch: 92.8795°
orbit number at epoch: 77787

The dashed part of the orbit path shows where the satellite is in the earth's shadow,  

DLR